Location: Eaton Estates
(41.3089°N, 82.0057°W)
Time: 15:13:59
(UTC+00:00)

SEEDS - Visible Passes

Search period start: 15 April 2024 00:00
Search period end: 25 April 2024 00:00
Orbit: 555 x 565 km, 97.7° (Epoch: 15 April)

Date Brightness Start Highest point End Pass type
(mag) Time Alt. Az. Time Alt. Az. Time Alt. Az.
15 Apr ? 09:09:19 10° NNE 09:13:14 54° E 09:17:01 11° S visible
16 Apr ? 09:08:10 10° NNE 09:12:05 52° E 09:15:57 10° S visible
17 Apr ? 09:07:00 10° NNE 09:10:53 50° E 09:14:45 10° S visible
18 Apr ? 09:05:48 10° NNE 09:09:41 48° E 09:13:32 10° S visible
19 Apr ? 09:04:35 10° NNE 09:08:28 47° E 09:12:17 10° S visible
20 Apr ? 09:03:21 10° NNE 09:07:12 45° E 09:11:02 10° S visible
21 Apr ? 09:02:06 10° NNE 09:05:55 43° E 09:09:44 10° S visible
22 Apr ? 09:00:49 10° NNE 09:04:37 42° E 09:08:25 10° S visible
23 Apr ? 08:59:31 10° NNE 09:03:18 40° E 09:07:03 10° S visible
24 Apr ? 08:58:12 10° NNE 09:01:57 39° E 09:05:42 10° SSE visible
